Lake Wenatchee to Mission Ridge
Blewett Pass
Latest observation 09/03 17:00 PDT
| Time (PDT) | Temp °F 4100' | RH % 4100' | Pcp1 in 4100' | PcpSum in 4100' | 24Sno in 4100' | SnoHt in 4100' | Pres millibar 4100' | EqTemp °F 4100' |
|---|---|---|---|---|---|---|---|---|
| 09/03 17:00 | 47 | 87 | 0.01 | 0.21 | -17.4 | 141.5 | 1011 | 47 |
| 09/03 16:00 | 47 | 91 | 0.16 | 0.20 | -34.1 | 141.5 | 1010 | 47 |
| 09/03 15:00 | 52 | 65 | 0.00 | 0.04 | -71.7 | -2.4 | 1010 | 54 |
| 09/03 14:00 | 57 | 46 | 0.00 | 0.04 | -73.2 | -2.3 | 1011 | 72 |
| 09/03 13:00 | 55 | 43 | 0.00 | 0.04 | -64.4 | -2.4 | 1011 | 65 |
| 09/03 12:00 | 54 | 45 | 0.00 | 0.04 | -48.0 | -2.3 | 1011 | 65 |
| 09/03 11:00 | 54 | 47 | 0.00 | 0.04 | -58.6 | -2.5 | 1011 | 81 |
| 09/03 10:00 | 52 | 48 | 0.00 | 0.04 | -74.8 | -2.5 | 1011 | 81 |
| 09/03 09:00 | 51 | 53 | 0.00 | 0.04 | -72.1 | -2.4 | 1010 | 75 |
| 09/03 08:00 | 47 | 60 | 0.00 | 0.04 | -31.2 | -2.1 | 1010 | 59 |
| 09/03 07:00 | 38 | 77 | 0.00 | 0.04 | -12.9 | 141.5 | 1010 | 36 |
| 09/03 06:00 | 38 | 79 | 0.00 | 0.04 | -13.1 | 141.5 | 1009 | 36 |
| 09/03 05:00 | 38 | 83 | 0.00 | 0.04 | -13.2 | 141.5 | 1009 | 35 |
| 09/03 04:00 | 40 | 82 | 0.00 | 0.04 | -13.3 | 141.5 | 1009 | 37 |
| 09/03 03:00 | 43 | 76 | 0.00 | 0.04 | -11.4 | 141.5 | 1009 | 40 |
| 09/03 02:00 | 44 | 84 | 0.00 | 0.04 | -12.1 | 141.5 | 1009 | 43 |
| 09/03 01:00 | 46 | 91 | 0.00 | 0.04 | -12.5 | 141.5 | 1009 | 45 |
| 09/03 00:00 | 47 | 91 | 0.01 | 0.04 | -13.6 | 141.5 | 1008 | 46 |
| 09/02 23:00 | 48 | 88 | 0.00 | 0.03 | -12.8 | 141.5 | 1008 | 47 |
| 09/02 22:00 | 47 | 88 | 0.00 | 0.03 | -13.1 | 141.5 | 1008 | 46 |
| 09/02 21:00 | 47 | 89 | 0.00 | 0.03 | -16.8 | 141.5 | 1008 | 46 |
| 09/02 20:00 | 48 | 89 | 0.00 | 0.03 | -32.3 | 141.5 | 1008 | 46 |
| 09/02 19:00 | 48 | 85 | 0.01 | 0.03 | -64.7 | 69.6 | 1008 | 48 |
| 09/02 18:00 | 51 | 71 | 0.01 | 0.02 | -96.3 | -1.9 | 1008 | 51 |
| 09/02 17:00 | 52 | 72 | 0.00 | 0.01 | -82.7 | -1.7 | 1008 | 54 |
| 09/02 16:00 | 55 | 60 | 0.00 | 0.01 | -56.6 | -2.0 | 1008 | 57 |
| 09/02 15:00 | 58 | 44 | 0.00 | 0.01 | -19.5 | -2.0 | 1008 | 63 |
| 09/02 14:00 | 59 | 44 | 0.00 | 0.01 | 16.1 | 141.5 | 1008 | 67 |
| 09/02 13:00 | 61 | 39 | 0.00 | 0.01 | 31.2 | 141.5 | 1008 | 72 |
| 09/02 12:00 | 62 | 35 | 0.00 | 0.01 | 35.6 | 141.5 | 1008 | 81 |
| 09/02 11:00 | 61 | 38 | 0.00 | 0.01 | 20.5 | 141.5 | 1009 | 84 |
| 09/02 10:00 | 58 | 50 | 0.00 | 0.01 | -5.3 | 141.5 | 1009 | 82 |
| 09/02 09:00 | 55 | 60 | 0.00 | 0.01 | -11.7 | 141.5 | 1009 | 71 |
| 09/02 08:00 | 50 | 74 | 0.00 | 0.01 | -12.3 | 141.5 | 1009 | 52 |
| 09/02 07:00 | 49 | 77 | 0.00 | 0.01 | -12.4 | 141.5 | 1009 | 47 |
| 09/02 06:00 | 48 | 83 | 0.00 | 0.01 | -15.1 | 141.5 | 1009 | 46 |
| 09/02 05:00 | 48 | 85 | 0.00 | 0.01 | -15.9 | 141.5 | 1009 | 47 |
| 09/02 04:00 | 50 | 80 | 0.01 | 0.01 | -25.9 | 141.5 | 1009 | 48 |
| 09/02 03:00 | 49 | 77 | 0.00 | 0.00 | -15.6 | 127.7 | 1010 | 47 |
| 09/02 02:00 | 48 | 79 | 0.00 | 0.00 | -13.1 | 141.5 | 1010 | 46 |
| 09/02 01:00 | 50 | 76 | 0.00 | 0.00 | -14.7 | 141.5 | 1011 | 48 |
| 09/02 00:00 | 52 | 76 | 0.00 | 0.00 | -12.1 | 141.5 | 1011 | 50 |
| 09/01 23:00 | 51 | 80 | 0.00 | 0.00 | -11.5 | 141.5 | 1011 | 48 |
| 09/01 22:00 | 52 | 77 | 0.00 | 0.00 | -10.7 | 141.5 | 1011 | 50 |
| 09/01 21:00 | 55 | 70 | 0.00 | 0.00 | -8.2 | 141.5 | 1010 | 53 |
| 09/01 20:00 | 59 | 60 | 0.00 | 0.00 | -7.6 | 141.5 | 1010 | 58 |
| 09/01 19:00 | 63 | 50 | 0.00 | 0.00 | -4.7 | -2.4 | 1010 | 65 |
| 09/01 18:00 | 66 | 45 | 0.00 | 0.00 | 27.4 | -2.2 | 1010 | 70 |
| 09/01 17:00 | 72 | 34 | 0.00 | 0.00 | 44.7 | -2.2 | 1009 | 82 |
| 09/01 16:00 | 76 | 24 | 0.00 | 0.00 | 48.2 | -2.4 | 1009 | 94 |
| 09/01 15:00 | 75 | 23 | 0.00 | 0.00 | 45.4 | -2.4 | 1009 | 94 |
| 09/01 14:00 | 75 | 23 | 0.00 | 0.00 | 39.5 | -2.5 | 1010 | 92 |
| 09/01 13:00 | 71 | 27 | 0.00 | 0.00 | 38.9 | -2.0 | 1010 | 84 |
| 09/01 12:00 | 71 | 28 | 0.00 | 0.00 | 40.9 | -1.8 | 1011 | 85 |
| 09/01 11:00 | 72 | 28 | 0.00 | 0.00 | 18.1 | -1.8 | 1011 | 91 |
| 09/01 10:00 | 67 | 33 | 0.00 | 0.00 | -65.1 | -2.2 | 1011 | 85 |
| 09/01 09:00 | 60 | 43 | 0.00 | 0.00 | -98.2 | -1.6 | 1012 | 65 |
| 09/01 08:00 | 56 | 51 | 0.00 | 0.00 | -102.7 | -2.1 | 1012 | 56 |
| 09/01 07:00 | 54 | 49 | 0.00 | 0.00 | -103.6 | -1.8 | 1012 | 52 |
| 09/01 06:00 | 53 | 49 | 0.00 | 0.00 | -102.3 | -1.7 | 1012 | 50 |
| 09/01 05:00 | 55 | 47 | 0.00 | 0.00 | -101.3 | -1.7 | 1012 | 52 |
| 09/01 04:00 | 55 | 42 | 0.00 | 0.00 | -101.8 | -1.5 | 1012 | 52 |
| 09/01 03:00 | 55 | 44 | 0.00 | 0.00 | -101.3 | -1.8 | 1012 | 51 |
| 09/01 02:00 | 55 | 44 | 0.00 | 0.00 | -101.6 | -1.7 | 1013 | 51 |
| 09/01 01:00 | 55 | 45 | 0.00 | 0.00 | -99.0 | -1.8 | 1013 | 52 |
| 09/01 00:00 | 56 | 46 | 0.00 | 0.00 | -95.1 | -1.8 | 1013 | 53 |
| 08/31 23:00 | 57 | 44 | 0.00 | 0.00 | -91.5 | -1.9 | 1013 | 54 |
| 08/31 22:00 | 58 | 43 | 0.00 | 0.00 | -82.7 | -2.3 | 1013 | 55 |
| 08/31 21:00 | 58 | 43 | 0.00 | 0.00 | -62.8 | -1.8 | 1013 | 56 |
| 08/31 20:00 | 61 | 40 | 0.00 | 0.00 | -34.9 | -3.0 | 1013 | 59 |
| 08/31 19:00 | 66 | 34 | 0.00 | 0.00 | -7.2 | -2.3 | 1014 | 65 |
| 08/31 18:00 | 68 | 31 | 0.00 | 0.00 | 19.3 | -2.5 | 1014 | 72 |
| 08/31 17:00 | 69 | 29 | 0.00 | 0.00 | 33.6 | -2.2 | 1014 | 83 |
| 08/31 16:00 | 70 | 31 | 0.00 | 0.00 | 42.2 | -2.9 | 1014 | 87 |
| 08/31 15:00 | 71 | 32 | 0.00 | 0.00 | 43.5 | -3.3 | 1015 | 88 |
| 08/31 14:00 | 68 | 37 | 0.00 | 0.00 | 40.4 | -2.7 | 1015 | 85 |
| 08/31 13:00 | 67 | 40 | 0.00 | 0.00 | 37.6 | -2.4 | 1016 | 85 |
| 08/31 12:00 | 64 | 44 | 0.00 | 0.00 | 40.6 | -2.2 | 1016 | 84 |
| 08/31 11:00 | 63 | 44 | 0.00 | 0.00 | 33.3 | 141.5 | 1017 | 86 |
| 08/31 10:00 | 61 | 47 | 0.00 | 0.00 | 12.5 | 141.5 | 1017 | 86 |
| 08/31 09:00 | 59 | 52 | 0.00 | 0.00 | -20.8 | 141.5 | 1017 | 82 |
| 08/31 08:00 | 56 | 61 | 0.00 | 0.00 | -9.9 | 141.5 | 1017 | 69 |
| 08/31 07:00 | 46 | 83 | 0.00 | 0.00 | -13.8 | 141.5 | 1017 | 44 |
| 08/31 06:00 | 46 | 84 | 0.00 | 0.00 | -13.5 | 141.5 | 1016 | 43 |
| 08/31 05:00 | 46 | 82 | 0.00 | 0.00 | -18.5 | 141.5 | 1016 | 43 |
| 08/31 04:00 | 47 | 81 | 0.00 | 0.00 | -15.9 | 141.5 | 1017 | 44 |
| 08/31 03:00 | 47 | 80 | 0.00 | 0.00 | -20.5 | 141.5 | 1016 | 44 |
| 08/31 02:00 | 47 | 80 | 0.00 | 0.00 | -25.9 | 141.5 | 1017 | 45 |
| 08/31 01:00 | 48 | 77 | 0.00 | 0.00 | -19.2 | 141.5 | 1017 | 45 |
| 08/31 00:00 | 48 | 77 | 0.00 | 0.00 | -42.0 | 141.5 | 1017 | 45 |
| 08/30 23:00 | 49 | 73 | 0.00 | 0.00 | -99.8 | -1.7 | 1018 | 47 |
| 08/30 22:00 | 51 | 68 | 0.00 | 0.00 | -92.2 | -2.2 | 1018 | 48 |
| 08/30 21:00 | 53 | 63 | 0.00 | 0.00 | -72.5 | -1.5 | 1018 | 51 |
| 08/30 20:00 | 57 | 55 | 0.00 | 0.00 | -58.8 | -2.0 | 1017 | 56 |
| 08/30 19:00 | 60 | 50 | 0.00 | 0.00 | -30.3 | -2.0 | 1018 | 61 |
| 08/30 18:00 | 63 | 44 | 0.00 | 0.00 | 2.2 | -2.2 | 1018 | 68 |
| 08/30 17:00 | 66 | 37 | 0.00 | 0.00 | 25.6 | -2.2 | 1017 | 82 |
| 08/30 16:00 | 68 | 35 | 0.00 | 0.00 | 44.9 | 141.5 | 1018 | 87 |
| 08/30 15:00 | 68 | 34 | 0.00 | 0.00 | 34.7 | -2.9 | 1018 | 88 |
| 08/30 14:00 | 65 | 36 | 0.00 | 0.00 | 29.7 | -3.2 | 1018 | 86 |
| 08/30 13:00 | 63 | 35 | 0.00 | 0.00 | 18.0 | -2.7 | 1018 | 86 |
| 08/30 12:00 | 58 | 44 | 0.00 | 0.00 | -5.3 | -2.8 | 1018 | 83 |
| 08/30 11:00 | 58 | 47 | 0.00 | 0.00 | -46.5 | -2.8 | 1018 | 84 |
| 08/30 10:00 | 53 | 55 | 0.00 | 0.00 | -80.7 | -2.3 | 1018 | 80 |
| 08/30 09:00 | 50 | 64 | 0.00 | 0.00 | -82.3 | -2.3 | 1018 | 75 |
| 08/30 08:00 | 48 | 68 | 0.00 | 0.00 | -45.7 | -2.3 | 1018 | 61 |
| 08/30 07:00 | 39 | 90 | 0.00 | 0.00 | -9.6 | 141.5 | 1018 | 36 |
| 08/30 06:00 | 38 | 89 | 0.00 | 0.00 | -15.5 | 141.5 | 1018 | 36 |
| 08/30 05:00 | 39 | 90 | 0.00 | 0.00 | -37.8 | 141.5 | 1018 | 36 |
| 08/30 04:00 | 39 | 88 | 0.00 | 0.00 | -33.9 | 141.5 | 1018 | 37 |
| 08/30 03:00 | 40 | 83 | 0.00 | 0.00 | -90.9 | 37.9 | 1017 | 37 |
| 08/30 02:00 | 41 | 82 | 0.00 | 0.00 | -108.7 | -1.6 | 1018 | 38 |
| 08/30 01:00 | 42 | 80 | 0.00 | 0.00 | -107.3 | -1.7 | 1018 | 39 |
| 08/30 00:00 | 43 | 72 | 0.00 | 0.00 | -102.7 | -5.5 | 1018 | 41 |
| 08/29 23:00 | 45 | 68 | 0.00 | 0.00 | -107.0 | -5.5 | 1017 | 42 |
| 08/29 22:00 | 43 | 65 | 0.00 | 0.00 | -103.5 | -2.2 | 1018 | 40 |
| 08/29 21:00 | 44 | 62 | 0.00 | 0.00 | -98.7 | -1.3 | 1018 | 41 |
| 08/29 20:00 | 48 | 54 | 0.00 | 0.00 | -100.3 | -1.1 | 1017 | 47 |
| 08/29 19:00 | 51 | 49 | 0.00 | 0.00 | -89.8 | -1.5 | 1017 | 51 |
| 08/29 18:00 | 53 | 50 | 0.00 | 0.00 | -69.0 | -1.2 | 1017 | 57 |
| 08/29 17:00 | 55 | 47 | 0.00 | 0.00 | -38.5 | -0.9 | 1016 | 72 |
| 08/29 16:00 | 58 | 42 | 0.00 | 0.00 | -35.5 | 62.3 | 1016 | 75 |
| 08/29 15:00 | 56 | 46 | 0.00 | 0.00 | -34.3 | -1.5 | 1016 | 70 |
| 08/29 14:00 | 57 | 44 | 0.00 | 0.00 | -36.3 | -1.2 | 1016 | 76 |
| 08/29 13:00 | 54 | 48 | 0.00 | 0.00 | -42.8 | -1.0 | 1015 | 65 |
| 08/29 12:00 | 54 | 52 | 0.00 | 0.00 | -38.5 | -1.5 | 1015 | 73 |
| 08/29 11:00 | 54 | 54 | 0.00 | 0.00 | -37.5 | -1.7 | 1014 | 76 |
| 08/29 10:00 | 54 | 51 | 0.00 | 0.00 | -70.0 | -2.0 | 1014 | 78 |
| 08/29 09:00 | 52 | 56 | 0.00 | 0.00 | -102.6 | -2.9 | 1014 | 73 |
| 08/29 08:00 | 50 | 63 | 0.00 | 0.00 | -105.7 | -3.2 | 1014 | 61 |
| 08/29 07:00 | 45 | 75 | 0.00 | 0.00 | -106.3 | -2.1 | 1013 | 43 |
| 08/29 06:00 | 47 | 72 | 0.00 | 0.00 | -105.9 | -1.8 | 1013 | 45 |
| 08/29 05:00 | 48 | 71 | 0.00 | 0.00 | -106.3 | -2.6 | 1013 | 47 |
| 08/29 04:00 | 49 | 74 | 0.00 | 0.00 | -106.6 | -2.2 | 1014 | 47 |
| 08/29 03:00 | 49 | 70 | 0.00 | 0.00 | -105.5 | -2.0 | 1014 | 46 |
| 08/29 02:00 | 48 | 68 | 0.00 | 0.00 | -103.5 | -3.2 | 1014 | 44 |
| 08/29 01:00 | 47 | 69 | 0.00 | 0.00 | -97.3 | -1.7 | 1014 | 44 |
| 08/29 00:00 | 50 | 65 | 0.00 | 0.00 | -76.8 | -2.2 | 1014 | 46 |
| 08/28 23:00 | 50 | 65 | 0.00 | 0.00 | -85.4 | -5.4 | 1015 | 47 |
| 08/28 22:00 | 52 | 61 | 0.00 | 0.00 | -74.1 | -1.7 | 1015 | 49 |
| 08/28 21:00 | 54 | 54 | 0.00 | 0.00 | -50.5 | -2.0 | 1015 | 51 |
| 08/28 20:00 | 58 | 49 | 0.00 | 0.00 | -10.9 | 141.5 | 1015 | 56 |
| 08/28 19:00 | 62 | 39 | 0.00 | 0.00 | 8.2 | 141.5 | 1015 | 63 |
| 08/28 18:00 | 66 | 34 | 0.00 | 0.00 | 28.7 | 0.8 | 1015 | 72 |
| 08/28 17:00 | 70 | 27 | 0.00 | 0.00 | 43.5 | 125.8 | 1015 | 89 |
| 08/28 16:00 | 71 | 24 | 0.00 | 0.00 | 45.7 | -2.3 | 1015 | 91 |
| 08/28 15:00 | 72 | 21 | 0.00 | 0.00 | 51.0 | 125.8 | 1016 | 92 |
| 08/28 14:00 | 71 | 19 | 0.00 | 0.00 | 51.9 | 125.8 | 1016 | 90 |
| 08/28 13:00 | 68 | 29 | 0.00 | 0.00 | 41.2 | -1.3 | 1017 | 88 |
| 08/28 12:00 | 67 | 33 | 0.00 | 0.00 | 27.1 | -1.9 | 1017 | 90 |
| 08/28 11:00 | 64 | 38 | 0.00 | 0.00 | 3.4 | -2.1 | 1017 | 84 |
| 08/28 10:00 | 60 | 47 | 0.00 | 0.00 | -54.2 | -2.2 | 1017 | 85 |
| 08/28 09:00 | 58 | 49 | 0.00 | 0.00 | -94.7 | -2.3 | 1017 | 80 |
| 08/28 08:00 | 52 | 68 | 0.00 | 0.00 | -105.3 | -1.4 | 1017 | 61 |
| 08/28 07:00 | 46 | 75 | 0.00 | 0.00 | -107.6 | -1.4 | 1017 | 45 |
| 08/28 06:00 | 47 | 71 | 0.00 | 0.00 | -106.5 | -1.6 | 1017 | 45 |
| 08/28 05:00 | 48 | 70 | 0.00 | 0.00 | -107.8 | -1.4 | 1017 | 45 |
| 08/28 04:00 | 47 | 79 | 0.00 | 0.00 | -108.4 | -1.4 | 1017 | 44 |
| 08/28 03:00 | 46 | 77 | 0.00 | 0.00 | -108.0 | -1.3 | 1017 | 44 |
| 08/28 02:00 | 48 | 74 | 0.00 | 0.00 | -107.6 | -1.3 | 1018 | 45 |
| 08/28 01:00 | 49 | 69 | 0.00 | 0.00 | -106.1 | 0.7 | 1018 | 47 |
| 08/28 00:00 | 51 | 65 | 0.00 | 0.00 | -105.3 | 1.0 | 1018 | 49 |
| 08/27 23:00 | 52 | 63 | 0.00 | 0.00 | -104.5 | 0.9 | 1018 | 50 |
| 08/27 22:00 | 53 | 59 | 0.00 | 0.00 | -98.8 | 0.7 | 1018 | 50 |
| 08/27 21:00 | 54 | 57 | 0.00 | 0.00 | -86.5 | 1.3 | 1018 | 52 |
| 08/27 20:00 | 57 | 52 | 0.00 | 0.00 | -64.9 | 0.6 | 1018 | 55 |
| 08/27 19:00 | 59 | 46 | 0.00 | 0.00 | -33.5 | 0.5 | 1018 | 60 |
| 08/27 18:00 | 62 | 41 | 0.00 | 0.00 | 6.9 | 0.1 | 1018 | 68 |

